• MPC Preparation (Info)

  • MPEC 2014-U140: 2014 UA176

    The following Minor Planet Electronic Circular may be linked-to from your own Web pages, but must not otherwise be redistributed electronically.

    A form allowing access to any MPEC is at the bottom of this page.


    Read MPEC 2014-U139 Read MPEC 2014-U141


    M.P.E.C. 2014-U140                               Issued 2014 Oct. 31, 14:38 UT
    
         The Minor Planet Electronic Circulars contain information on unusual
             minor planets and routine data on comets.  They are published
       on behalf of Commission 20 of the International Astronomical Union by the
              Minor Planet Center, Smithsonian Astrophysical Observatory,
                              Cambridge, MA 02138, U.S.A.
    
                 Prepared using the Tamkin Foundation Computer Network
    
                                  MPC@CFA.HARVARD.EDU
                URL https://www.minorplanetcenter.net/    ISSN 1523-6714
    
                                      2014 UA176
    
    Observations:
         K14UH6A* C2014 10 27.36164 01 48 12.681-12 03 23.52         21.6 wLEU140F51
         K14UH6A  C2014 10 27.37491 01 48 15.640-12 03 16.31         21.8 wLEU140F51
         K14UH6A  C2014 10 27.38816 01 48 18.627-12 03 09.38         21.7 wLEU140F51
         K14UH6A _C2014 10 28.53273301 54 13.936-11 49 43.93         21.2 RtEU140568
         K14UH6A _C2014 10 28.53398701 54 14.323-11 49 42.72         21.1 RtEU140568
         K14UH6A _C2014 10 28.53524001 54 14.704-11 49 41.58         21.3 RtEU140568
         K14UH6A _C2014 10 28.54933201 54 19.069-11 49 27.31         21.2 RtEU140568
         K14UH6A _C2014 10 28.55058601 54 19.481-11 49 26.36         21.3 RtEU140568
         K14UH6A _C2014 10 30.51984402 09 11.930-11 10 44.59         20.4 RtEU140568
         K14UH6A _C2014 10 30.52086602 09 12.441-11 10 42.89         20.5 RtEU140568
         K14UH6A _C2014 10 30.52188502 09 12.945-11 10 40.92         20.4 RtEU140568
    
    Observer details:
    568 Mauna Kea.  Observers R. J. Wainscoat, P. Forshay, L. Wells.  Measurers
        M. Micheli, R. J. Wainscoat.  3.6-m Canada-France-Hawaii Telescope + CCD.
    F51 Pan-STARRS 1, Haleakala.  Observers B. Gibson, T. Goggia, N. Primak,
        A. Schultz, M. Willman.  Measurers B. Bolin, K. Chambers, S. Chastel,
        L. Denneau, H. Flewelling, M. Huber, E. Magnier, E. Schunova, R. Wainscoat,
        C. Waters.  1.8-m Ritchey-Chretien + CCD.
    
    Orbital elements:
    2014 UA176                                               Earth MOID = 0.0002 AU
    Epoch 2014 Dec. 9.0 TT = JDT 2457000.5                  MPC
    M   1.97656              (2000.0)            P               Q
    n   0.36362218     Peri.   32.58422     +0.19032218     -0.97968944
    a   1.9440278      Node    46.53065     +0.88105008     +0.14208381
    e   0.5181097      Incl.    4.99070     +0.43304530     +0.14149485
    P   2.71           H   26.7           G   0.15           U   8
    Residuals in seconds of arc
    141027 F51  0.1-  0.2-    141028 568  0.1+  0.1+    141030 568  0.1+  0.1-
    141027 F51  0.2-  0.1+    141028 568  0.0   0.0     141030 568  0.0   0.2-
    141027 F51  0.3+  0.0     141028 568  0.3-  0.4+    141030 568  0.1-  0.0
    141028 568  0.1+  0.1+    141028 568  0.0   0.1+
    
    Ephemeris:
    2014 UA176               a,e,i = 1.94, 0.52, 5                   q = 0.9368
    Date    TT    R. A. (2000) Decl.     Delta      r     Elong.  Phase     V
    2014 10 01    01 13 53.9 -10 37 05   0.2219  1.2145   162.2    14.6    24.7
    ...
    2014 10 16    01 23 15.8 -12 07 13   0.1237  1.1135   159.2    18.6    23.3
    ...
    2014 10 24    01 36 17.5 -12 20 11   0.07682 1.0653   155.7    22.6    22.3
    ...
    2014 10 30    02 04 42.2 -11 21 59   0.04357 1.0328   154.9    24.1    21.1
    2014 10 31    02 14 12.1 -10 54 52   0.03824 1.0277   155.1    24.0    20.8
    2014 11 01    02 26 42.8 -10 16 05   0.03301 1.0228   155.5    23.8    20.5
    ...
    2014 11 07    07 38 44.6 +10 45 09   0.01279 0.9954   109.3    70.0    19.7
    ...
    2014 11 15    11 57 50.9 +15 55 10   0.04859 0.9662    60.3   117.1    24.7
    ...
    2014 11 30    12 43 15.1 +13 59 46   0.1295  0.9379    64.5   108.3    26.2
    
    A. U. Tomatic                (C) Copyright 2014 MPC           M.P.E.C. 2014-U140
    

    Read MPEC 2014-U139 Read MPEC 2014-U141


    MPEC number:

    Enter an MPEC number in one of the following forms:

    • 1997-B01 (the full form)
    • J97B01 (the packed version of the full form)
    • B01 (the abbreviated form)